Location: Iroquois Falls
(48.7680°N, 80.6732°W)
Time: 23:50:22
(UTC-04:00)

ISS - Visible Passes

Search period start: 22 September 2023 00:00
Search period end: 02 October 2023 00:00
Orbit: 414 x 422 km, 51.6° (Epoch: 22 September)

Date Brightness Start Highest point End Pass type
(mag) Time Alt. Az. Time Alt. Az. Time Alt. Az.
22 Sep -3.2 20:14:27 10° W 20:17:44 52° N 20:20:39 13° ENE visible
22 Sep -2.1 21:51:27 10° WNW 21:53:34 34° NW 21:53:34 34° NW visible
23 Sep -3.3 21:03:27 10° WNW 21:06:44 53° N 21:07:22 45° NE visible
24 Sep -3.2 20:15:24 10° WNW 20:18:40 49° N 20:21:08 16° ENE visible
24 Sep -1.8 21:52:15 10° WNW 21:54:03 29° WNW 21:54:03 29° WNW visible
25 Sep -3.9 21:04:12 10° WNW 21:07:33 76° NNE 21:07:47 71° ENE visible
26 Sep -3.5 20:16:07 10° WNW 20:19:26 61° NNE 20:21:31 21° E visible
26 Sep -1.4 21:52:58 10° WNW 21:54:26 22° W 21:54:26 22° W visible
27 Sep -3.6 21:04:48 10° WNW 21:08:07 60° SSW 21:08:11 60° SSW visible
28 Sep -3.8 20:16:38 10° WNW 20:20:00 84° SSW 20:21:56 23° ESE visible
28 Sep -0.9 21:53:56 10° W 21:54:51 14° WSW 21:54:51 14° WSW visible
29 Sep -2.3 21:05:26 10° W 21:08:22 28° SW 21:08:38 28° SSW visible
30 Sep -2.8 20:17:05 10° WNW 20:20:17 42° SSW 20:22:27 18° SSE visible
01 Oct -3.4 19:28:47 10° WNW 19:32:06 62° SSW 19:35:23 10° SE visible
01 Oct -1.1 21:06:41 10° WSW 21:08:19 13° SW 21:09:16 12° SSW visible
